Year,Month,Day,Hour,Minute,Value (Times are PST for temperature in C)
2012,09,20,00,00,18.30
2012,09,20,00,01,18.30
2012,09,20,00,02,18.30
2012,09,20,00,03,18.40
2012,09,20,00,04,18.40
2012,09,20,00,05,18.40
2012,09,20,00,06,18.40
2012,09,20,00,07,18.40
2012,09,20,00,08,18.40
2012,09,20,00,09,18.40
2012,09,20,00,10,18.40
2012,09,20,00,11,18.30
2012,09,20,00,12,18.30
2012,09,20,00,13,18.30
2012,09,20,00,14,18.30
2012,09,20,00,15,18.30
2012,09,20,00,16,18.30
2012,09,20,00,17,18.20
2012,09,20,00,18,18.20
2012,09,20,00,19,18.20
2012,09,20,00,20,18.30
2012,09,20,00,21,18.30
2012,09,20,00,22,18.30
2012,09,20,00,23,18.20
2012,09,20,00,24,18.20
2012,09,20,00,25,18.20
2012,09,20,00,26,18.20
2012,09,20,00,27,18.20
2012,09,20,00,28,18.10
2012,09,20,00,29,18.10
2012,09,20,00,30,18.10
2012,09,20,00,31,18.00
2012,09,20,00,32,18.00
2012,09,20,00,33,17.90
2012,09,20,00,34,17.90
2012,09,20,00,35,17.90
2012,09,20,00,36,17.80
2012,09,20,00,37,17.80
2012,09,20,00,38,17.80
2012,09,20,00,39,17.80
2012,09,20,00,40,17.70
2012,09,20,00,41,17.70
2012,09,20,00,42,17.70
2012,09,20,00,43,17.70
2012,09,20,00,44,17.70
2012,09,20,00,45,17.70
2012,09,20,00,46,17.70
2012,09,20,00,47,17.70
2012,09,20,00,48,17.70
2012,09,20,00,49,17.70
2012,09,20,00,50,17.70
2012,09,20,00,51,17.70
2012,09,20,00,52,17.70
2012,09,20,00,53,17.70
2012,09,20,00,54,17.70
2012,09,20,00,55,17.70
2012,09,20,00,56,17.70
2012,09,20,00,57,17.70
2012,09,20,00,58,17.70
2012,09,20,00,59,17.70
2012,09,20,01,00,17.70
2012,09,20,01,01,17.70
2012,09,20,01,02,17.60
2012,09,20,01,03,17.60
2012,09,20,01,04,17.60
2012,09,20,01,05,17.60
2012,09,20,01,06,17.60
2012,09,20,01,07,17.50
2012,09,20,01,08,17.50
2012,09,20,01,09,17.50
2012,09,20,01,10,17.40
2012,09,20,01,11,17.40
2012,09,20,01,12,17.40
2012,09,20,01,13,17.30
2012,09,20,01,14,17.30
2012,09,20,01,15,17.30
2012,09,20,01,16,17.30
2012,09,20,01,17,17.30
2012,09,20,01,18,17.30
2012,09,20,01,19,17.20
2012,09,20,01,20,17.20
2012,09,20,01,21,17.20
2012,09,20,01,22,17.20
2012,09,20,01,23,17.10
2012,09,20,01,24,17.10
2012,09,20,01,25,17.10
2012,09,20,01,26,17.00
2012,09,20,01,27,16.90
2012,09,20,01,28,16.80
2012,09,20,01,29,16.70
2012,09,20,01,30,16.70
2012,09,20,01,31,16.60
2012,09,20,01,32,16.60
2012,09,20,01,33,16.60
2012,09,20,01,34,16.60
2012,09,20,01,35,16.60
2012,09,20,01,36,16.70
2012,09,20,01,37,16.70
2012,09,20,01,38,16.70
2012,09,20,01,39,16.80
2012,09,20,01,40,16.90
2012,09,20,01,41,17.00
2012,09,20,01,42,17.10
2012,09,20,01,43,17.20
2012,09,20,01,44,17.30
2012,09,20,01,45,17.30
2012,09,20,01,46,17.40
2012,09,20,01,47,17.50
2012,09,20,01,48,17.60
2012,09,20,01,49,17.70
2012,09,20,01,50,17.70
2012,09,20,01,51,17.80
2012,09,20,01,52,17.80
2012,09,20,01,53,17.80
2012,09,20,01,54,17.80
2012,09,20,01,55,17.80
2012,09,20,01,56,17.80
2012,09,20,01,57,17.80
2012,09,20,01,58,17.80
2012,09,20,01,59,17.70
2012,09,20,02,00,17.70
2012,09,20,02,01,17.70
2012,09,20,02,02,17.60
2012,09,20,02,03,17.60
2012,09,20,02,04,17.60
2012,09,20,02,05,17.50
2012,09,20,02,06,17.50
2012,09,20,02,07,17.40
2012,09,20,02,08,17.40
2012,09,20,02,09,17.40
2012,09,20,02,10,17.40
2012,09,20,02,11,17.40
2012,09,20,02,12,17.40
2012,09,20,02,13,17.40
2012,09,20,02,14,17.30
2012,09,20,02,15,17.30
2012,09,20,02,16,17.30
2012,09,20,02,17,17.30
2012,09,20,02,18,17.20
2012,09,20,02,19,17.20
2012,09,20,02,20,17.20
2012,09,20,02,21,17.10
2012,09,20,02,22,17.10
2012,09,20,02,23,17.10
2012,09,20,02,24,17.10
2012,09,20,02,25,17.10
2012,09,20,02,26,17.10
2012,09,20,02,27,17.10
2012,09,20,02,28,17.10
2012,09,20,02,29,17.10
2012,09,20,02,30,17.10
2012,09,20,02,31,17.10
2012,09,20,02,32,17.10
2012,09,20,02,33,17.10
2012,09,20,02,34,17.10
2012,09,20,02,35,17.00
2012,09,20,02,36,17.00
2012,09,20,02,37,17.00
2012,09,20,02,38,17.00
2012,09,20,02,39,17.00
2012,09,20,02,40,17.00
2012,09,20,02,41,17.10
2012,09,20,02,42,17.10
2012,09,20,02,43,17.10
2012,09,20,02,44,17.20
2012,09,20,02,45,17.20
2012,09,20,02,46,17.20
2012,09,20,02,47,17.20
2012,09,20,02,48,17.20
2012,09,20,02,49,17.20
2012,09,20,02,50,17.20
2012,09,20,02,51,17.20
2012,09,20,02,52,17.20
2012,09,20,02,53,17.20
2012,09,20,02,54,17.20
2012,09,20,02,55,17.20
2012,09,20,02,56,17.20
2012,09,20,02,57,17.10
2012,09,20,02,58,17.10
2012,09,20,02,59,17.20
2012,09,20,03,00,17.20
2012,09,20,03,01,17.20
2012,09,20,03,02,17.20
2012,09,20,03,03,17.20
2012,09,20,03,04,17.20
2012,09,20,03,05,17.30
2012,09,20,03,06,17.30
2012,09,20,03,07,17.30
2012,09,20,03,08,17.30
2012,09,20,03,09,17.30
2012,09,20,03,10,17.30
2012,09,20,03,11,17.30
2012,09,20,03,12,17.30
2012,09,20,03,13,17.20
2012,09,20,03,14,17.20
2012,09,20,03,15,17.20
2012,09,20,03,16,17.10
2012,09,20,03,17,17.10
2012,09,20,03,18,17.10
2012,09,20,03,19,17.00
2012,09,20,03,20,17.00
2012,09,20,03,21,17.00
2012,09,20,03,22,17.00
2012,09,20,03,23,16.90
2012,09,20,03,24,16.90
2012,09,20,03,25,16.90
2012,09,20,03,26,16.90
2012,09,20,03,27,16.90
2012,09,20,03,28,16.80
2012,09,20,03,29,16.80
2012,09,20,03,30,16.80
2012,09,20,03,31,16.80
2012,09,20,03,32,16.70
2012,09,20,03,33,16.70
2012,09,20,03,34,16.80
2012,09,20,03,35,16.80
2012,09,20,03,36,16.90
2012,09,20,03,37,16.90
2012,09,20,03,38,16.90
2012,09,20,03,39,17.00
2012,09,20,03,40,17.00
2012,09,20,03,41,17.10
2012,09,20,03,42,17.10
2012,09,20,03,43,17.10
2012,09,20,03,44,17.10
2012,09,20,03,45,17.10
2012,09,20,03,46,17.10
2012,09,20,03,47,17.10
2012,09,20,03,48,17.10
2012,09,20,03,49,17.20
2012,09,20,03,50,17.20
2012,09,20,03,51,17.20
2012,09,20,03,52,17.20
2012,09,20,03,53,17.20
2012,09,20,03,54,17.20
2012,09,20,03,55,17.20
2012,09,20,03,56,17.30
2012,09,20,03,57,17.30
2012,09,20,03,58,17.30
2012,09,20,03,59,17.30
2012,09,20,04,00,17.30
2012,09,20,04,01,17.30
2012,09,20,04,02,17.20
2012,09,20,04,03,17.20
2012,09,20,04,04,17.10
2012,09,20,04,05,17.00
2012,09,20,04,06,17.00
2012,09,20,04,07,16.90
2012,09,20,04,08,16.90
2012,09,20,04,09,16.90
2012,09,20,04,10,16.90
2012,09,20,04,11,16.90
2012,09,20,04,12,16.90
2012,09,20,04,13,16.90
2012,09,20,04,14,16.90
2012,09,20,04,15,16.90
2012,09,20,04,16,16.90
2012,09,20,04,17,16.90
2012,09,20,04,18,16.90
2012,09,20,04,19,16.90
2012,09,20,04,20,16.90
2012,09,20,04,21,16.90
2012,09,20,04,22,16.90
2012,09,20,04,23,16.90
2012,09,20,04,24,16.90
2012,09,20,04,25,16.90
2012,09,20,04,26,17.00
2012,09,20,04,27,17.00
2012,09,20,04,28,17.00
2012,09,20,04,29,17.00
2012,09,20,04,30,17.00
2012,09,20,04,31,16.90
2012,09,20,04,32,16.90
2012,09,20,04,33,16.90
2012,09,20,04,34,16.90
2012,09,20,04,35,16.80
2012,09,20,04,36,16.80
2012,09,20,04,37,16.80
2012,09,20,04,38,16.70
2012,09,20,04,39,16.70
2012,09,20,04,40,16.70
2012,09,20,04,41,16.70
2012,09,20,04,42,16.60
2012,09,20,04,43,16.60
2012,09,20,04,44,16.60
2012,09,20,04,45,16.60
2012,09,20,04,46,16.60
2012,09,20,04,47,16.60
2012,09,20,04,48,16.50
2012,09,20,04,49,16.50
2012,09,20,04,50,16.50
2012,09,20,04,51,16.40
2012,09,20,04,52,16.40
2012,09,20,04,53,16.30
2012,09,20,04,54,16.30
2012,09,20,04,55,16.30
2012,09,20,04,56,16.20
2012,09,20,04,57,16.10
2012,09,20,04,58,16.00
2012,09,20,04,59,16.00
2012,09,20,05,00,15.80
2012,09,20,05,01,15.80
2012,09,20,05,02,15.70
2012,09,20,05,03,15.60
2012,09,20,05,04,15.60
2012,09,20,05,05,15.50
2012,09,20,05,06,15.50
2012,09,20,05,07,15.40
2012,09,20,05,08,15.20
2012,09,20,05,09,15.00
2012,09,20,05,10,15.00
2012,09,20,05,11,15.00
2012,09,20,05,12,15.00
2012,09,20,05,13,14.90
2012,09,20,05,14,14.80
2012,09,20,05,15,14.70
2012,09,20,05,16,14.60
2012,09,20,05,17,14.50
2012,09,20,05,18,14.40
2012,09,20,05,19,14.40
2012,09,20,05,20,14.30
2012,09,20,05,21,14.30
2012,09,20,05,22,14.30
2012,09,20,05,23,14.40
2012,09,20,05,24,14.40
2012,09,20,05,25,14.40
2012,09,20,05,26,14.40
2012,09,20,05,27,14.40
2012,09,20,05,28,14.50
2012,09,20,05,29,14.50
2012,09,20,05,30,14.50
2012,09,20,05,31,14.60
2012,09,20,05,32,14.70
2012,09,20,05,33,14.70
2012,09,20,05,34,14.80
2012,09,20,05,35,14.90
2012,09,20,05,36,15.00
2012,09,20,05,37,15.00
2012,09,20,05,38,15.00
2012,09,20,05,39,15.10
2012,09,20,05,40,15.20
2012,09,20,05,41,15.30
2012,09,20,05,42,15.40
2012,09,20,05,43,15.40
2012,09,20,05,44,15.50
2012,09,20,05,45,15.60
2012,09,20,05,46,15.70
2012,09,20,05,47,15.70
2012,09,20,05,48,15.80
2012,09,20,05,49,15.80
2012,09,20,05,50,15.80
2012,09,20,05,51,15.80
2012,09,20,05,52,15.80
2012,09,20,05,53,15.80
2012,09,20,05,54,15.80
2012,09,20,05,55,15.80
2012,09,20,05,56,15.80
2012,09,20,05,57,15.80
2012,09,20,05,58,15.80
2012,09,20,05,59,15.80
2012,09,20,06,00,15.80
2012,09,20,06,01,15.80
2012,09,20,06,02,15.80
2012,09,20,06,03,15.80
2012,09,20,06,04,15.80
2012,09,20,06,05,15.80
2012,09,20,06,06,15.80
2012,09,20,06,07,15.80
2012,09,20,06,08,15.80
2012,09,20,06,09,15.80
2012,09,20,06,10,15.90
2012,09,20,06,11,16.00
2012,09,20,06,12,16.10
2012,09,20,06,13,16.20
2012,09,20,06,14,16.30
2012,09,20,06,15,16.40
2012,09,20,06,16,16.50
2012,09,20,06,17,16.60
2012,09,20,06,18,16.50
2012,09,20,06,19,16.40
2012,09,20,06,20,16.30
2012,09,20,06,21,16.30
2012,09,20,06,22,16.20
2012,09,20,06,23,16.10
2012,09,20,06,24,16.00
2012,09,20,06,25,16.00
2012,09,20,06,26,15.90
2012,09,20,06,27,15.80
2012,09,20,06,28,15.80
2012,09,20,06,29,15.70
2012,09,20,06,30,15.70
2012,09,20,06,31,15.60
2012,09,20,06,32,15.60
2012,09,20,06,33,15.50
2012,09,20,06,34,15.50
2012,09,20,06,35,15.40
2012,09,20,06,36,15.40
2012,09,20,06,37,15.30
2012,09,20,06,38,15.30
2012,09,20,06,39,15.20
2012,09,20,06,40,15.20
2012,09,20,06,41,15.10
2012,09,20,06,42,15.00
2012,09,20,06,43,15.00
2012,09,20,06,44,15.00
2012,09,20,06,45,15.00
2012,09,20,06,46,15.00
2012,09,20,06,47,15.00
2012,09,20,06,48,15.00
2012,09,20,06,49,15.00
2012,09,20,06,50,14.90
2012,09,20,06,51,14.90
2012,09,20,06,52,14.90
2012,09,20,06,53,14.80
2012,09,20,06,54,14.80
2012,09,20,06,55,14.80
2012,09,20,06,56,14.90
2012,09,20,06,57,14.90
2012,09,20,06,58,14.90
2012,09,20,06,59,15.00
2012,09,20,07,00,15.00
2012,09,20,07,01,15.00
2012,09,20,07,02,15.00
2012,09,20,07,03,15.00
2012,09,20,07,04,15.00
2012,09,20,07,05,15.00
2012,09,20,07,06,15.00
2012,09,20,07,07,15.00
2012,09,20,07,08,15.10
2012,09,20,07,09,15.10
2012,09,20,07,10,15.20
2012,09,20,07,11,15.20
2012,09,20,07,12,15.30
2012,09,20,07,13,15.30
2012,09,20,07,14,15.30
2012,09,20,07,15,15.30
2012,09,20,07,16,15.40
2012,09,20,07,17,15.40
2012,09,20,07,18,15.40
2012,09,20,07,19,15.50
2012,09,20,07,20,15.50
2012,09,20,07,21,15.50
2012,09,20,07,22,15.50
2012,09,20,07,23,15.60
2012,09,20,07,24,15.60
2012,09,20,07,25,15.60
2012,09,20,07,26,15.60
2012,09,20,07,27,15.70
2012,09,20,07,28,15.70
2012,09,20,07,29,15.80
2012,09,20,07,30,15.80
2012,09,20,07,31,15.90
2012,09,20,07,32,16.00
2012,09,20,07,33,16.00
2012,09,20,07,34,16.10
2012,09,20,07,35,16.10
2012,09,20,07,36,16.20
2012,09,20,07,37,16.20
2012,09,20,07,38,16.20
2012,09,20,07,39,16.30
2012,09,20,07,40,16.30
2012,09,20,07,41,16.40
2012,09,20,07,42,16.40
2012,09,20,07,43,16.40
2012,09,20,07,44,16.40
2012,09,20,07,45,16.40
2012,09,20,07,46,16.50
2012,09,20,07,47,16.50
2012,09,20,07,48,16.50
2012,09,20,07,49,16.60
2012,09,20,07,50,16.60
2012,09,20,07,51,16.60
2012,09,20,07,52,16.70
2012,09,20,07,53,16.70
2012,09,20,07,54,16.70
2012,09,20,07,55,16.70
2012,09,20,07,56,16.80
2012,09,20,07,57,16.80
2012,09,20,07,58,16.80
2012,09,20,07,59,16.90
2012,09,20,08,00,16.90
2012,09,20,08,01,17.00
2012,09,20,08,02,17.00
2012,09,20,08,03,17.10
2012,09,20,08,04,17.00
2012,09,20,08,05,17.00
2012,09,20,08,06,17.00
2012,09,20,08,07,16.90
2012,09,20,08,08,16.90
2012,09,20,08,09,16.90
2012,09,20,08,10,16.90
2012,09,20,08,11,16.90
2012,09,20,08,12,16.90
2012,09,20,08,13,16.90
2012,09,20,08,14,16.90
2012,09,20,08,15,16.90
2012,09,20,08,16,16.90
2012,09,20,08,17,16.90
2012,09,20,08,18,16.90
2012,09,20,08,19,16.90
2012,09,20,08,20,16.90
2012,09,20,08,21,16.90
2012,09,20,08,22,17.00
2012,09,20,08,23,17.00
2012,09,20,08,24,17.00
2012,09,20,08,25,17.00
2012,09,20,08,26,17.10
2012,09,20,08,27,17.20
2012,09,20,08,28,17.30
2012,09,20,08,29,17.30
2012,09,20,08,30,17.30
2012,09,20,08,31,17.40
2012,09,20,08,32,17.50
2012,09,20,08,33,17.50
2012,09,20,08,34,17.50
2012,09,20,08,35,17.50
2012,09,20,08,36,17.40
2012,09,20,08,37,17.40
2012,09,20,08,38,17.40
2012,09,20,08,39,17.40
2012,09,20,08,40,17.30
2012,09,20,08,41,17.30
2012,09,20,08,42,17.30
2012,09,20,08,43,17.20
2012,09,20,08,44,17.10
2012,09,20,08,45,17.10
2012,09,20,08,46,17.10
2012,09,20,08,47,17.10
2012,09,20,08,48,17.10
2012,09,20,08,49,17.10
2012,09,20,08,50,17.00
2012,09,20,08,51,17.10
2012,09,20,08,52,17.10
2012,09,20,08,53,17.10
2012,09,20,08,54,17.10
2012,09,20,08,55,17.00
2012,09,20,08,56,17.00
2012,09,20,08,57,17.10
2012,09,20,08,58,17.10
2012,09,20,08,59,17.00
2012,09,20,09,00,17.00
2012,09,20,09,01,17.00
2012,09,20,09,02,17.00
2012,09,20,09,03,17.00
2012,09,20,09,04,17.00
2012,09,20,09,05,17.00
2012,09,20,09,06,17.00
2012,09,20,09,07,17.00
2012,09,20,09,08,16.90
2012,09,20,09,09,16.90
2012,09,20,09,10,16.90
2012,09,20,09,11,16.90
2012,09,20,09,12,16.90
2012,09,20,09,13,16.90
2012,09,20,09,14,16.90
2012,09,20,09,15,16.90
2012,09,20,09,16,16.90
2012,09,20,09,17,16.90
2012,09,20,09,18,17.00
2012,09,20,09,19,17.00
2012,09,20,09,20,17.10
2012,09,20,09,21,17.10
2012,09,20,09,22,17.10
2012,09,20,09,23,17.10
2012,09,20,09,24,17.20
2012,09,20,09,25,17.20
2012,09,20,09,26,17.20
2012,09,20,09,27,17.20
2012,09,20,09,28,17.20
2012,09,20,09,29,17.20
2012,09,20,09,30,17.10
2012,09,20,09,31,17.10
2012,09,20,09,32,17.10
2012,09,20,09,33,17.00
2012,09,20,09,34,17.00
2012,09,20,09,35,17.00
2012,09,20,09,36,17.00
2012,09,20,09,37,17.00
2012,09,20,09,38,17.00
2012,09,20,09,39,17.00
2012,09,20,09,40,17.00
2012,09,20,09,41,17.00
2012,09,20,09,42,17.10
2012,09,20,09,43,17.10
2012,09,20,09,44,17.10
2012,09,20,09,45,17.10
2012,09,20,09,46,17.20
2012,09,20,09,47,17.20
2012,09,20,09,48,17.20
2012,09,20,09,49,17.30
2012,09,20,09,50,17.40
2012,09,20,09,51,17.40
2012,09,20,09,52,17.40
2012,09,20,09,53,17.50
2012,09,20,09,54,17.50
2012,09,20,09,55,17.60
2012,09,20,09,56,17.60
2012,09,20,09,57,17.60
2012,09,20,09,58,17.60
2012,09,20,09,59,17.60
2012,09,20,10,00,17.60
2012,09,20,10,01,17.60
2012,09,20,10,02,17.60
2012,09,20,10,03,17.60
2012,09,20,10,04,17.70
2012,09,20,10,05,17.70
2012,09,20,10,06,17.70
2012,09,20,10,07,17.80
2012,09,20,10,08,17.80
2012,09,20,10,09,17.80
2012,09,20,10,10,17.80
2012,09,20,10,11,17.90
2012,09,20,10,12,17.90
2012,09,20,10,13,17.90
2012,09,20,10,14,18.00
2012,09,20,10,15,18.10
2012,09,20,10,16,18.10
2012,09,20,10,17,18.20
2012,09,20,10,18,18.30
2012,09,20,10,19,18.30
2012,09,20,10,20,18.40
2012,09,20,10,21,18.40
2012,09,20,10,22,18.50
2012,09,20,10,23,18.50
2012,09,20,10,24,18.50
2012,09,20,10,25,18.50
2012,09,20,10,26,18.40
2012,09,20,10,27,18.30
2012,09,20,10,28,18.30
2012,09,20,10,29,18.30
2012,09,20,10,30,18.40
2012,09,20,10,31,18.40
2012,09,20,10,32,18.40
2012,09,20,10,33,18.40
2012,09,20,10,34,18.40
2012,09,20,10,35,18.40
2012,09,20,10,36,18.40
2012,09,20,10,37,18.40
2012,09,20,10,38,18.50
2012,09,20,10,39,18.60
2012,09,20,10,40,18.70
2012,09,20,10,41,18.70
2012,09,20,10,42,18.70
2012,09,20,10,43,18.70
2012,09,20,10,44,18.70
2012,09,20,10,45,18.70
2012,09,20,10,46,18.80
2012,09,20,10,47,18.90
2012,09,20,10,48,18.90
2012,09,20,10,49,18.90
2012,09,20,10,50,18.90
2012,09,20,10,51,18.90
2012,09,20,10,52,19.00
2012,09,20,10,53,19.00
2012,09,20,10,54,19.00
2012,09,20,10,55,18.90
2012,09,20,10,56,18.90
2012,09,20,10,57,18.90
2012,09,20,10,58,19.00
2012,09,20,10,59,19.00
2012,09,20,11,00,19.10
2012,09,20,11,01,19.20
2012,09,20,11,02,19.20
2012,09,20,11,03,19.20
2012,09,20,11,04,19.20
2012,09,20,11,05,19.40
2012,09,20,11,06,19.50
2012,09,20,11,07,19.70
2012,09,20,11,08,19.70
2012,09,20,11,09,19.80
2012,09,20,11,10,19.90
2012,09,20,11,11,19.90
2012,09,20,11,12,19.90
2012,09,20,11,13,20.00
2012,09,20,11,14,20.00
2012,09,20,11,15,19.90
2012,09,20,11,16,19.80
2012,09,20,11,17,19.70
2012,09,20,11,18,19.60
2012,09,20,11,19,19.50
2012,09,20,11,20,19.50
2012,09,20,11,21,19.50
2012,09,20,11,22,19.40
2012,09,20,11,23,19.40
2012,09,20,11,24,19.40
2012,09,20,11,25,19.40
2012,09,20,11,26,19.40
2012,09,20,11,27,19.40
2012,09,20,11,28,19.40
2012,09,20,11,29,19.40
2012,09,20,11,30,19.50
2012,09,20,11,31,19.50
2012,09,20,11,32,19.60
2012,09,20,11,33,19.60
2012,09,20,11,34,19.60
2012,09,20,11,35,19.70
2012,09,20,11,36,19.70
2012,09,20,11,37,19.80
2012,09,20,11,38,19.80
2012,09,20,11,39,19.80
2012,09,20,11,40,19.80
2012,09,20,11,41,19.90
2012,09,20,11,42,19.90
2012,09,20,11,43,19.80
2012,09,20,11,44,19.80
2012,09,20,11,45,19.80
2012,09,20,11,46,19.90
2012,09,20,11,47,19.90
2012,09,20,11,48,19.90
2012,09,20,11,49,20.00
2012,09,20,11,50,20.00
2012,09,20,11,51,20.10
2012,09,20,11,52,20.10
2012,09,20,11,53,20.10
2012,09,20,11,54,20.10
2012,09,20,11,55,20.10
2012,09,20,11,56,20.20
2012,09,20,11,57,20.20
2012,09,20,11,58,20.20
2012,09,20,11,59,20.20
2012,09,20,12,00,20.10
2012,09,20,12,01,20.00
2012,09,20,12,02,20.00
2012,09,20,12,03,19.90
2012,09,20,12,04,19.90
2012,09,20,12,05,19.90
2012,09,20,12,06,20.00
2012,09,20,12,07,20.10
2012,09,20,12,08,20.00
2012,09,20,12,09,20.00
2012,09,20,12,10,20.10
2012,09,20,12,11,20.20
2012,09,20,12,12,20.30
2012,09,20,12,13,20.40
2012,09,20,12,14,20.40
2012,09,20,12,15,20.30
2012,09,20,12,16,20.20
2012,09,20,12,17,20.20
2012,09,20,12,18,20.20
2012,09,20,12,19,20.20
2012,09,20,12,20,20.30
2012,09,20,12,21,20.30
2012,09,20,12,22,20.20
2012,09,20,12,23,20.20
2012,09,20,12,24,20.10
2012,09,20,12,25,20.10
2012,09,20,12,26,20.20
2012,09,20,12,27,20.30
2012,09,20,12,28,20.30
2012,09,20,12,29,20.40
2012,09,20,12,30,20.40
2012,09,20,12,31,20.40
2012,09,20,12,32,20.40
2012,09,20,12,33,20.50
2012,09,20,12,34,20.50
2012,09,20,12,35,20.60
2012,09,20,12,36,20.70
2012,09,20,12,37,20.70
2012,09,20,12,38,20.70
2012,09,20,12,39,20.60
2012,09,20,12,40,20.60
2012,09,20,12,41,20.60
2012,09,20,12,42,20.70
2012,09,20,12,43,20.70
2012,09,20,12,44,20.70
2012,09,20,12,45,20.70
2012,09,20,12,46,20.70
2012,09,20,12,47,20.70
2012,09,20,12,48,20.70
2012,09,20,12,49,20.60
2012,09,20,12,50,20.60
2012,09,20,12,51,20.60
2012,09,20,12,52,20.70
2012,09,20,12,53,20.70
2012,09,20,12,54,20.70
2012,09,20,12,55,20.70
2012,09,20,12,56,20.80
2012,09,20,12,57,20.80
2012,09,20,12,58,20.80
2012,09,20,12,59,20.80
2012,09,20,13,00,20.80
2012,09,20,13,01,20.80
2012,09,20,13,02,20.80
2012,09,20,13,03,20.80
2012,09,20,13,04,20.90
2012,09,20,13,05,20.90
2012,09,20,13,06,21.00
2012,09,20,13,07,21.10
2012,09,20,13,08,21.10
2012,09,20,13,09,21.20
2012,09,20,13,10,21.20
2012,09,20,13,11,21.20
2012,09,20,13,12,21.20
2012,09,20,13,13,21.30
2012,09,20,13,14,21.40
2012,09,20,13,15,21.50
2012,09,20,13,16,21.50
2012,09,20,13,17,21.60
2012,09,20,13,18,21.50
2012,09,20,13,19,21.60
2012,09,20,13,20,21.70
2012,09,20,13,21,21.70
2012,09,20,13,22,21.70
2012,09,20,13,23,21.70
2012,09,20,13,24,21.60
2012,09,20,13,25,21.60
2012,09,20,13,26,21.50
2012,09,20,13,27,21.30
2012,09,20,13,28,21.30
2012,09,20,13,29,21.30
2012,09,20,13,30,21.30
2012,09,20,13,31,21.30
2012,09,20,13,32,21.30
2012,09,20,13,33,21.30
2012,09,20,13,34,21.30
2012,09,20,13,35,21.30
2012,09,20,13,36,21.40
2012,09,20,13,37,21.40
2012,09,20,13,38,21.30
2012,09,20,13,39,21.30
2012,09,20,13,40,21.10
2012,09,20,13,41,21.10
2012,09,20,13,42,21.00
2012,09,20,13,43,20.90
2012,09,20,13,44,20.90
2012,09,20,13,45,21.00
2012,09,20,13,46,21.00
2012,09,20,13,47,20.90
2012,09,20,13,48,20.90
2012,09,20,13,49,20.90
2012,09,20,13,50,20.90
2012,09,20,13,51,20.80
2012,09,20,13,52,20.80
2012,09,20,13,53,20.80
2012,09,20,13,54,20.80
2012,09,20,13,55,20.90
2012,09,20,13,56,21.10
2012,09,20,13,57,21.20
2012,09,20,13,58,21.20
2012,09,20,13,59,21.10
2012,09,20,14,00,21.10
2012,09,20,14,01,21.00
2012,09,20,14,02,20.90
2012,09,20,14,03,20.90
2012,09,20,14,04,20.90
2012,09,20,14,05,20.90
2012,09,20,14,06,21.00
2012,09,20,14,07,21.00
2012,09,20,14,08,21.10
2012,09,20,14,09,21.10
2012,09,20,14,10,21.10
2012,09,20,14,11,21.10
2012,09,20,14,12,21.10
2012,09,20,14,13,21.10
2012,09,20,14,14,21.10
2012,09,20,14,15,21.10
2012,09,20,14,16,21.10
2012,09,20,14,17,21.10
2012,09,20,14,18,21.10
2012,09,20,14,19,21.10
2012,09,20,14,20,21.10
2012,09,20,14,21,21.10
2012,09,20,14,22,21.20
2012,09,20,14,23,21.20
2012,09,20,14,24,21.30
2012,09,20,14,25,21.30
2012,09,20,14,26,21.40
2012,09,20,14,27,21.50
2012,09,20,14,28,21.50
2012,09,20,14,29,21.60
2012,09,20,14,30,21.70
2012,09,20,14,31,21.70
2012,09,20,14,32,21.70
2012,09,20,14,33,21.60
2012,09,20,14,34,21.60
2012,09,20,14,35,21.50
2012,09,20,14,36,21.50
2012,09,20,14,37,21.40
2012,09,20,14,38,21.40
2012,09,20,14,39,21.40
2012,09,20,14,40,21.40
2012,09,20,14,41,21.40
2012,09,20,14,42,21.40
2012,09,20,14,43,21.50
2012,09,20,14,44,21.50
2012,09,20,14,45,21.50
2012,09,20,14,46,21.50
2012,09,20,14,47,21.60
2012,09,20,14,48,21.60
2012,09,20,14,49,21.60
2012,09,20,14,50,21.60
2012,09,20,14,51,21.60
2012,09,20,14,52,21.70
2012,09,20,14,53,21.70
2012,09,20,14,54,21.70
2012,09,20,14,55,21.70
2012,09,20,14,56,21.70
2012,09,20,14,57,21.70
2012,09,20,14,58,21.80
2012,09,20,14,59,21.80
2012,09,20,15,00,21.80
2012,09,20,15,01,21.80
2012,09,20,15,02,21.80
2012,09,20,15,03,21.80
2012,09,20,15,04,21.90
2012,09,20,15,05,22.00
2012,09,20,15,06,22.00
2012,09,20,15,07,22.00
2012,09,20,15,08,22.00
2012,09,20,15,09,22.00
2012,09,20,15,10,21.90
2012,09,20,15,11,22.00
2012,09,20,15,12,22.00
2012,09,20,15,13,22.00
2012,09,20,15,14,22.10
2012,09,20,15,15,22.20
2012,09,20,15,16,22.30
2012,09,20,15,17,22.30
2012,09,20,15,18,22.30
2012,09,20,15,19,22.30
2012,09,20,15,20,22.20
2012,09,20,15,21,22.20
2012,09,20,15,22,22.20
2012,09,20,15,23,22.20
2012,09,20,15,24,22.20
2012,09,20,15,25,22.20
2012,09,20,15,26,22.20
2012,09,20,15,27,22.20
2012,09,20,15,28,22.30
2012,09,20,15,29,22.30
2012,09,20,15,30,22.30
2012,09,20,15,31,22.30
2012,09,20,15,32,22.30
2012,09,20,15,33,22.20
2012,09,20,15,34,22.20
2012,09,20,15,35,22.20
2012,09,20,15,36,22.20
2012,09,20,15,37,22.20
2012,09,20,15,38,22.20
2012,09,20,15,39,22.10
2012,09,20,15,40,22.10
2012,09,20,15,41,22.10
2012,09,20,15,42,22.10
2012,09,20,15,43,22.10
2012,09,20,15,44,22.10
2012,09,20,15,45,22.10
2012,09,20,15,46,22.20
2012,09,20,15,47,22.20
2012,09,20,15,48,22.20
2012,09,20,15,49,22.20
2012,09,20,15,50,22.30
2012,09,20,15,51,22.40
2012,09,20,15,52,22.40
2012,09,20,15,53,22.40
2012,09,20,15,54,22.40
2012,09,20,15,55,22.40
2012,09,20,15,56,22.50
2012,09,20,15,57,22.60
2012,09,20,15,58,22.60
2012,09,20,15,59,22.60
2012,09,20,16,00,22.70
2012,09,20,16,01,22.70
2012,09,20,16,02,22.70
2012,09,20,16,03,22.70
2012,09,20,16,04,22.70
2012,09,20,16,05,22.70
2012,09,20,16,06,22.70
2012,09,20,16,07,22.70
2012,09,20,16,08,22.80
2012,09,20,16,09,22.80
2012,09,20,16,10,22.80
2012,09,20,16,11,22.80
2012,09,20,16,12,22.80
2012,09,20,16,13,22.80
2012,09,20,16,14,22.90
2012,09,20,16,15,22.90
2012,09,20,16,16,22.90
2012,09,20,16,17,23.00
2012,09,20,16,18,23.00
2012,09,20,16,19,23.10
2012,09,20,16,20,23.10
2012,09,20,16,21,23.10
2012,09,20,16,22,23.10
2012,09,20,16,23,23.00
2012,09,20,16,24,23.00
2012,09,20,16,25,22.90
2012,09,20,16,26,22.90
2012,09,20,16,27,22.90
2012,09,20,16,28,22.80
2012,09,20,16,29,22.80
2012,09,20,16,30,22.80
2012,09,20,16,31,22.80
2012,09,20,16,32,22.80
2012,09,20,16,33,22.80
2012,09,20,16,34,22.80
2012,09,20,16,35,22.80
2012,09,20,16,36,22.80
2012,09,20,16,37,22.80
2012,09,20,16,38,22.80
2012,09,20,16,39,22.80
2012,09,20,16,40,22.80
2012,09,20,16,41,22.80
2012,09,20,16,42,22.80
2012,09,20,16,43,22.80
2012,09,20,16,44,22.80
2012,09,20,16,45,22.80
2012,09,20,16,46,22.70
2012,09,20,16,47,22.70
2012,09,20,16,48,22.70
2012,09,20,16,49,22.80
2012,09,20,16,50,22.80
2012,09,20,16,51,22.80
2012,09,20,16,52,22.80
2012,09,20,16,53,22.80
2012,09,20,16,54,22.80
2012,09,20,16,55,22.80
2012,09,20,16,56,22.80
2012,09,20,16,57,22.80
2012,09,20,16,58,22.80
2012,09,20,16,59,22.80
2012,09,20,17,00,22.80
2012,09,20,17,01,22.80
2012,09,20,17,02,22.80
2012,09,20,17,03,22.80
2012,09,20,17,04,22.80
2012,09,20,17,05,22.80
2012,09,20,17,06,22.80
2012,09,20,17,07,22.80
2012,09,20,17,08,22.80
2012,09,20,17,09,22.80
2012,09,20,17,10,22.80
2012,09,20,17,11,22.80
2012,09,20,17,12,22.80
2012,09,20,17,13,22.80
2012,09,20,17,14,22.80
2012,09,20,17,15,22.80
2012,09,20,17,16,22.80
2012,09,20,17,17,22.80
2012,09,20,17,18,22.70
2012,09,20,17,19,22.70